This demonstration page uses our WeatherBlox Daily Observations layout. Learn more.

Left ArrowRight Arrow

Hourly Observations for May 21, 2019

Temp ( °F °C ) Dew Point ( °F °C ) Humidity (%) Winds ( mph kmh ) Pressure ( in mb ) Visibility ( mi km ) Precip ( " mm )
12:15 am 00:15 Cloudy with Light Rain 44 6.4 44 6.4 100 100 ENE 25 41 29.83 1010 4 6 N/A
12:35 am 00:35 Cloudy with Light Rain 43 6.2 43 6.2 100 100 ENE 18 30 29.83 1010 3 5 0.01 0.25
12:55 am 00:55 Cloudy with Light Rain 43 6.3 43 6.3 100 100 ENE 21 33 29.83 1010 4 6 0.01 0.25
1:15 am 01:15 Cloudy with Light Rain 43 6.1 43 6.1 100 100 ENE 22 35 29.82 1010 4 6 N/A
1:35 am 01:35 Cloudy with Mist and Fog 43 6.1 43 6.1 100 100 ENE 24 39 29.80 1009 3 5 0.01 0.25
1:55 am 01:55 Cloudy with Mist and Fog 43 6.1 43 6.1 100 100 ENE 24 39 29.79 1009 4 6 0.01 0.25
2:15 am 02:15 Cloudy with Mist and Fog 43 6.2 43 6.2 100 100 ENE 20 31 29.78 1008 3 5 N/A
2:35 am 02:35 Cloudy with Mist and Fog 43 6.2 43 6.2 100 100 ENE 23 37 29.78 1008 3 5 N/A
2:55 am 02:55 Cloudy with Mist and Fog 43 6.3 43 6.3 100 100 E 20 31 29.79 1009 3 4 N/A
3:15 am 03:15 Cloudy with Light Rain 43 6.3 43 6.3 100 100 E 22 35 29.77 1008 3 4 N/A
3:55 am 03:55 Cloudy with Light Rain 43 6.3 43 6.3 100 100 E 20 31 29.75 1007 3 4 0.01 0.25
4:15 am 04:15 Cloudy with Light Rain 44 6.5 44 6.5 100 100 E 15 24 29.75 1008 3 4 N/A
4:35 am 04:35 Cloudy with Light Rain 44 6.5 44 6.5 100 100 E 16 26 29.74 1007 3 4 0.02 0.51
4:55 am 04:55 Cloudy with Light Rain 44 6.5 44 6.5 100 100 E 18 30 29.73 1007 3 5 0.02 0.51
5:15 am 05:15 Cloudy with Light Rain 44 6.5 44 6.5 100 100 E 16 26 29.71 1006 3 5 N/A
5:35 am 05:35 Cloudy with Mist and Fog 44 6.5 44 6.5 100 100 E 18 30 29.70 1006 3 5 N/A
5:55 am 05:55 Cloudy with Light Rain 44 6.5 44 6.5 100 100 E 18 30 29.69 1006 4 6 N/A
6:15 am 06:15 Cloudy with Light Rain 44 6.6 44 6.6 100 100 E 18 30 29.67 1005 3 5 N/A
6:35 am 06:35 Cloudy with Light Rain 44 6.7 44 6.7 100 100 E 17 28 29.67 1005 3 4 N/A
6:55 am 06:55 Cloudy with Rain 44 6.8 44 6.8 100 100 E 16 26 29.66 1004 2 3 0.02 0.51
7:15 am 07:15 Cloudy with Light Rain 44 6.8 44 6.8 100 100 E 17 28 29.65 1004 4 6 N/A
7:35 am 07:35 Cloudy with Light Rain 45 7 45 7 100 100 E 17 28 29.63 1003 2 3 0.01 0.25
7:55 am 07:55 Cloudy with Mist and Fog 45 7 45 7 100 100 E 16 26 29.63 1003 4 6 0.01 0.25
8:15 am 08:15 Cloudy with Rain 45 7.1 45 7.1 100 100 E 18 30 29.63 1003 2 2 0.01 0.25
8:35 am 08:35 Cloudy with Light Rain 45 7.2 45 7.2 100 100 E 18 30 29.63 1003 1 2 0.04 1.02
8:55 am 08:55 Cloudy with Light Rain 45 7.2 45 7.2 100 100 E 18 30 29.61 1003 1 2 0.05 1.27
9:15 am 09:15 Cloudy with Light Rain 45 7.3 45 7.3 100 100 E 17 28 29.60 1002 1 2 N/A
9:35 am 09:35 Cloudy with Light Rain 46 7.5 46 7.5 100 100 E 16 26 29.58 1002 2 2 0.01 0.25
9:55 am 09:55 Cloudy with Light Rain 46 7.6 46 7.6 100 100 ENE 16 26 29.57 1001 2 2 0.01 0.25
10:15 am 10:15 Cloudy with Light Rain 46 7.7 46 7.7 100 100 ENE 16 26 29.56 1001 1 2 N/A
10:35 am 10:35 Cloudy with Light Rain 46 8 46 8 100 100 ENE 16 26 29.55 1001 1 2 N/A
10:55 am 10:55 Cloudy with Light Rain 47 8.1 47 8.1 100 100 E 20 31 29.53 1000 2 2 N/A
11:15 am 11:15 Cloudy with Light Rain 46 8 46 8 100 100 ENE 17 28 29.52 1000 1 2 0.01 0.25
11:35 am 11:35 Cloudy with Light Rain 47 8.2 47 8.2 100 100 ENE 22 35 29.50 999 2 2 0.01 0.25
11:55 am 11:55 Cloudy with Light Rain 47 8.4 47 8.4 100 100 ENE 21 33 29.49 999 3 5 0.05 1.27
12:15 pm 12:15 Cloudy with Light Rain 47 8.3 47 8.3 100 100 ENE 17 28 29.47 998 2 3 0.01 0.25
12:35 pm 12:35 Cloudy with Light Rain 47 8.6 47 8.6 100 100 ENE 17 28 29.44 997 2 3 0.01 0.25
12:55 pm 12:55 Cloudy with Light Rain 48 8.7 48 8.7 100 100 E 20 31 29.42 996 2 2 0.02 0.51
1:15 pm 13:15 Cloudy with Light Rain 48 8.7 48 8.7 100 100 ENE 25 41 29.40 996 2 2 0.03 0.76
1:35 pm 13:35 Cloudy with Rain 47 8.6 47 8.6 100 100 ENE 23 37 29.39 995 7 11 0.04 1.02
1:55 pm 13:55 Cloudy 47 8.6 47 8.6 100 100 ENE 22 35 29.38 995 5 8 0.09 2.29
2:15 pm 14:15 Cloudy with Light Rain 48 8.8 48 8.8 100 100 ENE 18 30 29.38 995 4 6 0.04 1.02
2:35 pm 14:35 Cloudy with Light Rain 48 8.8 48 8.8 100 100 E 22 35 29.37 995 3 4 0.13 3.30
2:55 pm 14:55 Cloudy with Light Rain 48 8.8 48 8.8 100 100 ENE 21 33 29.37 995 4 6 0.20 5.08
3:15 pm 15:15 Cloudy with Light Rain 48 8.9 48 8.9 100 100 E 25 41 29.36 994 2 3 0.04 1.02
3:35 pm 15:35 Cloudy with Light Rain 47 8.6 47 8.6 100 100 E 18 30 29.35 994 4 6 0.06 1.52
3:55 pm 15:55 Cloudy with Rain 48 8.8 48 8.8 100 100 E 20 31 29.35 994 2 3 0.11 2.79
4:15 pm 16:15 Cloudy with Rain 48 9 48 9 100 100 E 24 39 29.34 994 2 3 0.06 1.52
4:35 pm 16:35 Cloudy with Light Rain 49 9.2 49 9.2 100 100 E 17 28 29.32 993 10 16 0.10 2.54
4:55 pm 16:55 Cloudy with Light Rain 49 9.7 49 9.7 100 100 E 17 28 29.29 992 10 16 0.10 2.54
5:15 pm 17:15 Cloudy 49 9.7 49 9.7 100 100 E 15 24 29.28 991 10 16 N/A
5:35 pm 17:35 Cloudy 49 9.6 49 9.5 99 99 E 14 22 29.28 991 10 16 N/A
5:55 pm 17:55 Cloudy 49 9.5 48 9.1 97 97 E 15 24 29.29 992 10 16 N/A
6:15 pm 18:15 Cloudy 49 9.7 49 9.5 99 99 E 13 20 29.29 992 10 16 N/A
6:35 pm 18:35 Cloudy 50 10.1 50 9.8 98 98 E 13 20 29.26 991 10 16 N/A
6:55 pm 18:55 Cloudy 51 10.5 50 10.2 98 98 E 17 28 29.26 991 10 16 N/A
7:15 pm 19:15 Cloudy 51 10.7 51 10.5 99 99 E 15 24 29.26 991 10 16 N/A
7:35 pm 19:35 Mostly Cloudy 50 10 46 7.5 85 85 SE 9 15 29.25 991 10 16 N/A
7:55 pm 19:55 Partly Cloudy 48 9 46 7.6 91 91 SE 6 9 29.25 991 10 16 N/A
8:15 pm 20:15 Sunny 47 8.5 46 7.8 95 95 ESE 5 7 29.26 991 10 16 N/A
8:35 pm 20:35 Sunny 47 8.5 47 8.1 97 97 SE 7 11 29.27 991 10 16 N/A
8:55 pm 20:55 Clear 47 8.5 46 8 97 97 SSE 5 7 29.28 991 10 16 N/A
9:15 pm 21:15 Partly Cloudy 47 8.5 47 8.2 98 98 SSE 3 6 29.30 992 10 16 N/A
9:35 pm 21:35 Mostly Cloudy 48 9.1 48 9 99 99 S 7 11 29.29 992 10 16 N/A
9:55 pm 21:55 Cloudy 49 9.5 49 9.4 99 99 SW 9 15 29.30 992 10 16 N/A
10:15 pm 22:15 Cloudy 49 9.3 49 9.2 99 99 SW 9 15 29.30 992 10 16 N/A
10:35 pm 22:35 Cloudy 49 9.3 49 9.2 99 99 SW 9 15 29.30 992 10 16 N/A
10:55 pm 22:55 Cloudy with Light Rain 48 8.7 47 8.6 99 99 W 16 26 29.31 993 10 16 N/A
11:15 pm 23:15 Cloudy with Drizzle 47 8.1 46 8 99 99 W 16 26 29.33 993 10 16 N/A
11:35 pm 23:35 Cloudy with Rain 46 8 46 7.8 99 99 W 20 31 29.34 994 10 16 0.01 0.25
11:55 pm 23:55 Cloudy with Drizzle 46 7.8 46 7.8 100 100 W 17 28 29.36 994 10 16 0.02 0.51

Powered by AerisWeather